Time,TemperatureF,DewpointF,PressureIn,WindDirection,WindDirectionDegrees,WindSpeedMPH,WindSpeedGustMPH,Humidity,HourlyPrecipIn,Conditions,Clouds,dailyrainin,SoftwareType,DateUTC
2013-03-14 00:02:00,38.0,26.0,30.34,North,-999,-999.0,-999.0,60,-99.99,,,-99.99,,2013-03-14 06:02:00,
2013-03-14 00:12:00,40.0,25.0,30.34,North,-999,-999.0,-999.0,53,-99.99,,,-99.99,,2013-03-14 06:12:00,
2013-03-14 00:22:00,40.0,25.0,30.34,North,-999,-999.0,-999.0,53,-99.99,,,-99.99,,2013-03-14 06:22:00,
2013-03-14 00:33:00,40.0,25.0,30.34,North,-999,-999.0,-999.0,53,-99.99,,,-99.99,,2013-03-14 06:33:00,
2013-03-14 00:42:00,38.0,26.0,30.34,North,-999,-999.0,-999.0,59,-99.99,,,-99.99,,2013-03-14 06:42:00,
2013-03-14 00:52:00,38.0,26.0,30.34,North,-999,-999.0,-999.0,59,-99.99,,,-99.99,,2013-03-14 06:52:00,
2013-03-14 01:02:00,38.0,26.0,30.34,North,-999,-999.0,-999.0,59,-99.99,,,-99.99,,2013-03-14 07:02:00,
2013-03-14 01:12:00,38.0,26.0,30.34,North,-999,-999.0,-999.0,59,-99.99,,,-99.99,,2013-03-14 07:12:00,
2013-03-14 01:22:00,41.0,23.0,30.34,North,-999,-999.0,-999.0,48,-99.99,,,-99.99,,2013-03-14 07:22:00,
2013-03-14 01:32:00,41.0,23.0,30.34,North,-999,-999.0,-999.0,48,-99.99,,,-99.99,,2013-03-14 07:32:00,
2013-03-14 01:42:00,41.0,23.0,30.34,North,-999,-999.0,-999.0,48,-99.99,,,-99.99,,2013-03-14 07:42:00,
2013-03-14 01:52:00,41.0,24.0,30.33,North,-999,-999.0,-999.0,50,-99.99,,,-99.99,,2013-03-14 07:52:00,
2013-03-14 02:02:00,41.0,24.0,30.33,North,-999,-999.0,-999.0,50,-99.99,,,-99.99,,2013-03-14 08:02:00,
2013-03-14 02:12:00,40.0,24.0,30.33,North,-999,-999.0,-999.0,52,-99.99,,,-99.99,,2013-03-14 08:12:00,
2013-03-14 02:21:00,40.0,24.0,30.33,North,-999,-999.0,-999.0,52,-99.99,,,-99.99,,2013-03-14 08:21:00,
2013-03-14 02:32:00,40.0,24.0,30.33,North,-999,-999.0,-999.0,52,-99.99,,,-99.99,,2013-03-14 08:32:00,
2013-03-14 02:41:00,39.0,25.0,30.33,North,-999,-999.0,-999.0,56,-99.99,,,-99.99,,2013-03-14 08:41:00,
2013-03-14 02:51:00,39.0,25.0,30.33,North,-999,-999.0,-999.0,56,-99.99,,,-99.99,,2013-03-14 08:51:00,
2013-03-14 03:01:00,39.0,25.0,30.33,North,-999,-999.0,-999.0,56,-99.99,,,-99.99,,2013-03-14 09:01:00,
2013-03-14 03:12:00,40.0,23.0,30.33,North,-999,-999.0,-999.0,48,-99.99,,,-99.99,,2013-03-14 09:12:00,
2013-03-14 03:22:00,40.0,23.0,30.33,North,-999,-999.0,-999.0,48,-99.99,,,-99.99,,2013-03-14 09:22:00,
2013-03-14 03:32:00,40.0,23.0,30.33,North,-999,-999.0,-999.0,48,-99.99,,,-99.99,,2013-03-14 09:32:00,
2013-03-14 03:42:00,40.0,23.0,30.33,North,-999,-999.0,-999.0,48,-99.99,,,-99.99,,2013-03-14 09:42:00,
2013-03-14 03:52:00,38.0,23.0,30.33,North,-999,-999.0,-999.0,55,-99.99,,,-99.99,,2013-03-14 09:52:00,
2013-03-14 04:02:00,38.0,23.0,30.33,North,-999,-999.0,-999.0,55,-99.99,,,-99.99,,2013-03-14 10:02:00,
2013-03-14 04:12:00,38.0,23.0,30.33,North,-999,-999.0,-999.0,55,-99.99,,,-99.99,,2013-03-14 10:12:00,
2013-03-14 04:22:00,36.0,23.0,30.33,North,-999,-999.0,-999.0,58,-99.99,,,-99.99,,2013-03-14 10:22:00,
2013-03-14 04:32:00,36.0,23.0,30.33,North,-999,-999.0,-999.0,58,-99.99,,,-99.99,,2013-03-14 10:32:00,
2013-03-14 04:42:00,40.0,20.0,30.33,North,-999,-999.0,-999.0,43,-99.99,,,-99.99,,2013-03-14 10:42:00,
2013-03-14 04:52:00,40.0,20.0,30.33,North,-999,-999.0,-999.0,43,-99.99,,,-99.99,,2013-03-14 10:52:00,
2013-03-14 05:02:00,40.0,20.0,30.33,North,-999,-999.0,-999.0,43,-99.99,,,-99.99,,2013-03-14 11:02:00,
2013-03-14 05:12:00,38.0,21.0,30.33,North,-999,-999.0,-999.0,50,-99.99,,,-99.99,,2013-03-14 11:12:00,
2013-03-14 05:22:00,38.0,21.0,30.33,North,-999,-999.0,-999.0,50,-99.99,,,-99.99,,2013-03-14 11:22:00,
2013-03-14 05:32:00,38.0,21.0,30.33,North,-999,-999.0,-999.0,50,-99.99,,,-99.99,,2013-03-14 11:32:00,
2013-03-14 05:42:00,38.0,21.0,30.33,North,-999,-999.0,-999.0,50,-99.99,,,-99.99,,2013-03-14 11:42:00,
2013-03-14 05:52:00,36.0,22.0,30.33,North,-999,-999.0,-999.0,56,-99.99,,,-99.99,,2013-03-14 11:52:00,
2013-03-14 06:02:00,36.0,22.0,30.33,North,-999,-999.0,-999.0,56,-99.99,,,-99.99,,2013-03-14 12:02:00,
2013-03-14 06:12:00,36.0,22.0,30.33,North,-999,-999.0,-999.0,56,-99.99,,,-99.99,,2013-03-14 12:12:00,
2013-03-14 06:22:00,36.0,21.0,30.33,North,-999,-999.0,-999.0,55,-99.99,,,-99.99,,2013-03-14 12:22:00,
2013-03-14 06:33:00,36.0,21.0,30.33,North,-999,-999.0,-999.0,55,-99.99,,,-99.99,,2013-03-14 12:33:00,
2013-03-14 06:42:00,36.0,21.0,30.33,North,-999,-999.0,-999.0,55,-99.99,,,-99.99,,2013-03-14 12:42:00,
2013-03-14 06:52:00,35.0,21.0,30.34,North,-999,-999.0,-999.0,55,-99.99,,,-99.99,,2013-03-14 12:52:00,
2013-03-14 07:02:00,35.0,21.0,30.34,North,-999,-999.0,-999.0,55,-99.99,,,-99.99,,2013-03-14 13:02:00,
2013-03-14 07:12:00,35.0,21.0,30.34,North,-999,-999.0,-999.0,55,-99.99,,,-99.99,,2013-03-14 13:12:00,
2013-03-14 07:22:00,36.0,19.0,30.34,North,-999,-999.0,-999.0,49,-99.99,,,-99.99,,2013-03-14 13:22:00,
2013-03-14 07:32:00,36.0,19.0,30.34,North,-999,-999.0,-999.0,49,-99.99,,,-99.99,,2013-03-14 13:32:00,
2013-03-14 07:42:00,36.0,19.0,30.34,North,-999,-999.0,-999.0,49,-99.99,,,-99.99,,2013-03-14 13:42:00,
2013-03-14 07:52:00,34.0,21.0,30.35,North,-999,-999.0,-999.0,57,-99.99,,,-99.99,,2013-03-14 13:52:00,
2013-03-14 08:02:00,34.0,21.0,30.35,North,-999,-999.0,-999.0,57,-99.99,,,-99.99,,2013-03-14 14:02:00,
2013-03-14 08:12:00,37.0,21.0,30.36,North,-999,-999.0,-999.0,52,-99.99,,,-99.99,,2013-03-14 14:12:00,
2013-03-14 08:22:00,37.0,21.0,30.36,North,-999,-999.0,-999.0,52,-99.99,,,-99.99,,2013-03-14 14:22:00,
2013-03-14 08:32:00,37.0,21.0,30.36,North,-999,-999.0,-999.0,52,-99.99,,,-99.99,,2013-03-14 14:32:00,
2013-03-14 08:42:00,37.0,21.0,30.36,North,-999,-999.0,-999.0,52,-99.99,,,-99.99,,2013-03-14 14:42:00,
2013-03-14 08:52:00,38.0,22.0,30.36,North,-999,-999.0,-999.0,51,-99.99,,,-99.99,,2013-03-14 14:52:00,
2013-03-14 09:02:00,38.0,22.0,30.36,North,-999,-999.0,-999.0,51,-99.99,,,-99.99,,2013-03-14 15:02:00,
2013-03-14 09:12:00,40.0,24.0,30.37,North,-999,-999.0,-999.0,51,-99.99,,,-99.99,,2013-03-14 15:12:00,
2013-03-14 09:22:00,40.0,24.0,30.37,North,-999,-999.0,-999.0,51,-99.99,,,-99.99,,2013-03-14 15:22:00,
2013-03-14 09:32:00,40.0,24.0,30.37,North,-999,-999.0,-999.0,51,-99.99,,,-99.99,,2013-03-14 15:32:00,
2013-03-14 09:43:00,40.0,24.0,30.37,North,-999,-999.0,-999.0,51,-99.99,,,-99.99,,2013-03-14 15:43:00,
2013-03-14 09:52:00,42.0,25.0,30.37,North,-999,-999.0,-999.0,49,-99.99,,,-99.99,,2013-03-14 15:52:00,
2013-03-14 10:03:00,42.0,25.0,30.37,North,-999,-999.0,-999.0,49,-99.99,,,-99.99,,2013-03-14 16:03:00,
2013-03-14 10:12:00,44.0,24.0,30.36,North,-999,-999.0,-999.0,46,-99.99,,,-99.99,,2013-03-14 16:12:00,
2013-03-14 10:22:00,44.0,24.0,30.36,North,-999,-999.0,-999.0,46,-99.99,,,-99.99,,2013-03-14 16:22:00,
2013-03-14 10:32:00,44.0,24.0,30.36,North,-999,-999.0,-999.0,46,-99.99,,,-99.99,,2013-03-14 16:32:00,
2013-03-14 10:42:00,45.0,25.0,30.36,North,-999,-999.0,-999.0,46,-99.99,,,-99.99,,2013-03-14 16:42:00,
2013-03-14 10:52:00,45.0,25.0,30.36,North,-999,-999.0,-999.0,46,-99.99,,,-99.99,,2013-03-14 16:52:00,
2013-03-14 11:02:00,45.0,25.0,30.36,North,-999,-999.0,-999.0,46,-99.99,,,-99.99,,2013-03-14 17:02:00,
2013-03-14 11:12:00,47.0,27.0,30.36,North,-999,-999.0,-999.0,44,-99.99,,,-99.99,,2013-03-14 17:12:00,
2013-03-14 11:23:00,47.0,27.0,30.36,North,-999,-999.0,-999.0,44,-99.99,,,-99.99,,2013-03-14 17:23:00,
2013-03-14 11:32:00,47.0,27.0,30.36,North,-999,-999.0,-999.0,44,-99.99,,,-99.99,,2013-03-14 17:32:00,
2013-03-14 11:42:00,50.0,24.0,30.35,North,-999,-999.0,-999.0,36,-99.99,,,-99.99,,2013-03-14 17:42:00,
2013-03-14 11:52:00,50.0,24.0,30.35,North,-999,-999.0,-999.0,36,-99.99,,,-99.99,,2013-03-14 17:52:00,
2013-03-14 12:03:00,50.0,24.0,30.35,North,-999,-999.0,-999.0,36,-99.99,,,-99.99,,2013-03-14 18:03:00,
2013-03-14 12:12:00,50.0,24.0,30.35,North,-999,-999.0,-999.0,36,-99.99,,,-99.99,,2013-03-14 18:12:00,
2013-03-14 12:22:00,52.0,23.0,30.34,North,-999,-999.0,-999.0,32,-99.99,,,-99.99,,2013-03-14 18:22:00,
2013-03-14 12:32:00,52.0,23.0,30.34,North,-999,-999.0,-999.0,32,-99.99,,,-99.99,,2013-03-14 18:32:00,
2013-03-14 12:43:00,52.0,23.0,30.34,North,-999,-999.0,-999.0,32,-99.99,,,-99.99,,2013-03-14 18:43:00,
2013-03-14 12:52:00,53.0,24.0,30.33,North,-999,-999.0,-999.0,32,-99.99,,,-99.99,,2013-03-14 18:52:00,
2013-03-14 13:03:00,53.0,24.0,30.33,North,-999,-999.0,-999.0,32,-99.99,,,-99.99,,2013-03-14 19:03:00,
2013-03-14 13:12:00,54.0,23.0,30.33,North,-999,-999.0,-999.0,29,-99.99,,,-99.99,,2013-03-14 19:12:00,
2013-03-14 13:22:00,54.0,23.0,30.33,North,-999,-999.0,-999.0,29,-99.99,,,-99.99,,2013-03-14 19:22:00,
2013-03-14 13:32:00,54.0,23.0,30.33,North,-999,-999.0,-999.0,29,-99.99,,,-99.99,,2013-03-14 19:32:00,
2013-03-14 13:42:00,54.0,23.0,30.33,North,-999,-999.0,-999.0,29,-99.99,,,-99.99,,2013-03-14 19:42:00,
2013-03-14 13:52:00,54.0,20.0,30.32,North,-999,-999.0,-999.0,25,-99.99,,,-99.99,,2013-03-14 19:52:00,
2013-03-14 14:02:00,54.0,20.0,30.32,North,-999,-999.0,-999.0,25,-99.99,,,-99.99,,2013-03-14 20:02:00,
2013-03-14 14:12:00,54.0,22.0,30.32,North,-999,-999.0,-999.0,29,-99.99,,,-99.99,,2013-03-14 20:12:00,
2013-03-14 14:22:00,54.0,22.0,30.32,North,-999,-999.0,-999.0,29,-99.99,,,-99.99,,2013-03-14 20:22:00,
2013-03-14 14:32:00,54.0,22.0,30.32,North,-999,-999.0,-999.0,29,-99.99,,,-99.99,,2013-03-14 20:32:00,
2013-03-14 14:42:00,55.0,19.0,30.30,North,-999,-999.0,-999.0,23,-99.99,,,-99.99,,2013-03-14 20:42:00,
2013-03-14 14:52:00,55.0,19.0,30.30,North,-999,-999.0,-999.0,23,-99.99,,,-99.99,,2013-03-14 20:52:00,
2013-03-14 15:02:00,55.0,19.0,30.30,North,-999,-999.0,-999.0,23,-99.99,,,-99.99,,2013-03-14 21:02:00,
2013-03-14 15:12:00,55.0,19.0,30.30,North,-999,-999.0,-999.0,23,-99.99,,,-99.99,,2013-03-14 21:12:00,
2013-03-14 15:22:00,55.0,18.0,30.30,North,-999,-999.0,-999.0,23,-99.99,,,-99.99,,2013-03-14 21:22:00,
2013-03-14 15:32:00,55.0,18.0,30.30,North,-999,-999.0,-999.0,23,-99.99,,,-99.99,,2013-03-14 21:32:00,
2013-03-14 15:43:00,56.0,19.0,30.28,North,-999,-999.0,-999.0,23,-99.99,,,-99.99,,2013-03-14 21:43:00,
2013-03-14 15:52:00,56.0,19.0,30.28,North,-999,-999.0,-999.0,23,-99.99,,,-99.99,,2013-03-14 21:52:00,
2013-03-14 16:03:00,56.0,19.0,30.28,North,-999,-999.0,-999.0,23,-99.99,,,-99.99,,2013-03-14 22:03:00,
2013-03-14 16:13:00,56.0,19.0,30.28,North,-999,-999.0,-999.0,23,-99.99,,,-99.99,,2013-03-14 22:13:00,
2013-03-14 16:23:00,55.0,22.0,30.27,North,-999,-999.0,-999.0,27,-99.99,,,-99.99,,2013-03-14 22:23:00,
2013-03-14 16:33:00,55.0,22.0,30.27,North,-999,-999.0,-999.0,27,-99.99,,,-99.99,,2013-03-14 22:33:00,
2013-03-14 16:42:00,55.0,23.0,30.27,North,-999,-999.0,-999.0,28,-99.99,,,-99.99,,2013-03-14 22:42:00,
2013-03-14 16:52:00,55.0,23.0,30.27,North,-999,-999.0,-999.0,28,-99.99,,,-99.99,,2013-03-14 22:52:00,
2013-03-14 17:02:00,55.0,23.0,30.27,North,-999,-999.0,-999.0,28,-99.99,,,-99.99,,2013-03-14 23:02:00,
2013-03-14 17:12:00,53.0,24.0,30.28,North,-999,-999.0,-999.0,33,-99.99,,,-99.99,,2013-03-14 23:12:00,
2013-03-14 17:22:00,53.0,24.0,30.28,North,-999,-999.0,-999.0,33,-99.99,,,-99.99,,2013-03-14 23:22:00,
2013-03-14 17:33:00,53.0,24.0,30.28,North,-999,-999.0,-999.0,33,-99.99,,,-99.99,,2013-03-14 23:33:00,
2013-03-14 17:43:00,53.0,23.0,30.28,North,-999,-999.0,-999.0,31,-99.99,,,-99.99,,2013-03-14 23:43:00,
2013-03-14 17:53:00,53.0,23.0,30.28,North,-999,-999.0,-999.0,31,-99.99,,,-99.99,,2013-03-14 23:53:00,
2013-03-14 18:02:00,53.0,23.0,30.28,North,-999,-999.0,-999.0,31,-99.99,,,-99.99,,2013-03-15 00:02:00,
2013-03-14 18:12:00,53.0,23.0,30.28,North,-999,-999.0,-999.0,31,-99.99,,,-99.99,,2013-03-15 00:12:00,
2013-03-14 18:22:00,53.0,23.0,30.28,North,-999,-999.0,-999.0,31,-99.99,,,-99.99,,2013-03-15 00:22:00,
2013-03-14 18:43:00,49.0,23.0,30.28,North,-999,-999.0,-999.0,35,-99.99,,,-99.99,,2013-03-15 00:43:00,
2013-03-14 18:52:00,49.0,23.0,30.28,North,-999,-999.0,-999.0,35,-99.99,,,-99.99,,2013-03-15 00:52:00,
2013-03-14 19:02:00,49.0,23.0,30.28,North,-999,-999.0,-999.0,35,-99.99,,,-99.99,,2013-03-15 01:02:00,
2013-03-14 19:12:00,47.0,20.0,30.27,North,-999,-999.0,-999.0,34,-99.99,,,-99.99,,2013-03-15 01:12:00,
2013-03-14 19:22:00,47.0,20.0,30.27,North,-999,-999.0,-999.0,34,-99.99,,,-99.99,,2013-03-15 01:22:00,
2013-03-14 19:33:00,47.0,20.0,30.27,North,-999,-999.0,-999.0,34,-99.99,,,-99.99,,2013-03-15 01:33:00,
2013-03-14 19:43:00,45.0,21.0,30.27,North,-999,-999.0,-999.0,38,-99.99,,,-99.99,,2013-03-15 01:43:00,
2013-03-14 19:52:00,45.0,21.0,30.27,North,-999,-999.0,-999.0,38,-99.99,,,-99.99,,2013-03-15 01:52:00,
2013-03-14 20:02:00,45.0,21.0,30.27,North,-999,-999.0,-999.0,38,-99.99,,,-99.99,,2013-03-15 02:02:00,
2013-03-14 20:12:00,44.0,21.0,30.27,North,-999,-999.0,-999.0,40,-99.99,,,-99.99,,2013-03-15 02:12:00,
2013-03-14 20:22:00,44.0,21.0,30.27,North,-999,-999.0,-999.0,40,-99.99,,,-99.99,,2013-03-15 02:22:00,
2013-03-14 20:32:00,44.0,21.0,30.27,North,-999,-999.0,-999.0,40,-99.99,,,-99.99,,2013-03-15 02:32:00,
2013-03-14 20:42:00,42.0,23.0,30.26,North,-999,-999.0,-999.0,48,-99.99,,,-99.99,,2013-03-15 02:42:00,
2013-03-14 20:52:00,42.0,23.0,30.26,North,-999,-999.0,-999.0,48,-99.99,,,-99.99,,2013-03-15 02:52:00,
2013-03-14 21:02:00,42.0,23.0,30.26,North,-999,-999.0,-999.0,48,-99.99,,,-99.99,,2013-03-15 03:02:00,
2013-03-14 21:12:00,43.0,20.0,30.27,North,-999,-999.0,-999.0,38,-99.99,,,-99.99,,2013-03-15 03:12:00,
2013-03-14 21:22:00,43.0,20.0,30.27,North,-999,-999.0,-999.0,38,-99.99,,,-99.99,,2013-03-15 03:22:00,
2013-03-14 21:33:00,43.0,20.0,30.27,North,-999,-999.0,-999.0,38,-99.99,,,-99.99,,2013-03-15 03:33:00,
2013-03-14 21:43:00,45.0,19.0,30.27,North,-999,-999.0,-999.0,35,-99.99,,,-99.99,,2013-03-15 03:43:00,
2013-03-14 21:53:00,45.0,19.0,30.27,North,-999,-999.0,-999.0,35,-99.99,,,-99.99,,2013-03-15 03:53:00,
2013-03-14 22:03:00,45.0,19.0,30.27,North,-999,-999.0,-999.0,35,-99.99,,,-99.99,,2013-03-15 04:03:00,
2013-03-14 22:12:00,42.0,22.0,30.25,North,-999,-999.0,-999.0,46,-99.99,,,-99.99,,2013-03-15 04:12:00,
2013-03-14 22:22:00,42.0,22.0,30.25,North,-999,-999.0,-999.0,46,-99.99,,,-99.99,,2013-03-15 04:22:00,
2013-03-14 22:33:00,42.0,22.0,30.25,North,-999,-999.0,-999.0,46,-99.99,,,-99.99,,2013-03-15 04:33:00,
2013-03-14 22:43:00,42.0,22.0,30.25,North,-999,-999.0,-999.0,43,-99.99,,,-99.99,,2013-03-15 04:43:00,
2013-03-14 22:53:00,42.0,22.0,30.25,North,-999,-999.0,-999.0,43,-99.99,,,-99.99,,2013-03-15 04:53:00,
2013-03-14 23:02:00,42.0,22.0,30.25,North,-999,-999.0,-999.0,43,-99.99,,,-99.99,,2013-03-15 05:02:00,
2013-03-14 23:12:00,42.0,23.0,30.24,North,-999,-999.0,-999.0,46,-99.99,,,-99.99,,2013-03-15 05:12:00,
2013-03-14 23:22:00,42.0,23.0,30.24,North,-999,-999.0,-999.0,46,-99.99,,,-99.99,,2013-03-15 05:22:00,
2013-03-14 23:32:00,42.0,23.0,30.24,North,-999,-999.0,-999.0,46,-99.99,,,-99.99,,2013-03-15 05:32:00,
2013-03-14 23:42:00,45.0,20.0,30.23,North,-999,-999.0,-999.0,36,-99.99,,,-99.99,,2013-03-15 05:42:00,
2013-03-14 23:52:00,45.0,20.0,30.23,North,-999,-999.0,-999.0,36,-99.99,,,-99.99,,2013-03-15 05:52:00,